Tracking 21082 objects as of 5-Aug-2020
HD Live streaming from Space Station
objects crossing your sky now

LANDSAT 4

Track LANDSAT 4 now!
10-day predictions
LANDSAT 4 is classified as:


NORAD ID: 13367
Int'l Code: 1982-072A
Perigee: 513.7 km
Apogee: 529.4 km
Inclination: 98.2 °
Period: 94.9 minutes
Semi major axis: 6892 km
RCS: 7.754 m2 (large)
Launch date: July 16, 1982
Source: United States (US)
Launch site: AIR FORCE WESTERN TEST RANGE (AFWTR)
aabbcc
Your satellite tracking list
Your tracking list is empty




NASA's NSSDC Master Catalog

Two Line Element Set (TLE):
1 13367U 82072A   20218.09854990  .00000457  00000-0  26981-4 0  9992
2 13367  98.1787 132.6873 0011397 261.9619 211.2184 15.17152096 58556
Source of the keplerian elements: AFSPC